Location: Bucharest
(44.4268°N, 26.1025°E)
Time: 01:08:06
(UTC+03:00)

ESTCUBE 1 - Pass Details

Date: 28 June 2022
Orbit: 646 x 657 km, 97.9° (Epoch: 07 August)

Event Time Altitude Azimuth Distance (km) Brightness Sun altitude
Exits shadow 23:13:11 30° 154° (SSE) 1,149 ? -16.5°
Maximum altitude 23:15:20 74° 75° (ENE) 677 ? -16.7°
Drops below altitude 10° 23:19:48 10° 351° (N) 2,058 ? -17.0°
Sets 23:22:01 0° 349° (N) 2,974 ? -17.2°
